User: anonymous   Login
Location: Feura Bush
(42.5779°N, 73.8787°W)
Time: 18:47:26
(UTC+00:00)
Language:

VELOX 1 - Orbit

View from above orbital plane
View from above orbital plane
View from above satellite
View from above satellite

Ground track
Ground track

The orbit data is extracted from the following two-line orbital elements,

1 40057U 14034E   24338.40943636  .00011775  00000-0  12342-2 0  9998
2 40057  98.3159 201.9522 0008197 322.7116  37.3530 14.89702659562860
Epoch (UTC): 03 December 2024 09:49:35
Eccentricity: 0.0008197
inclination: 98.3159°
perigee height: 593 km
apogee height: 604 km
right ascension of ascending node: 201.9522°
argument of perigee: 322.7116°
revolutions per day: 14.89702659
mean anomaly at epoch: 37.3530°
orbit number at epoch: 56286

The dashed part of the orbit path shows where the satellite is in the earth's shadow,  

DLR